User: anonymous   Login
Location: Newark
(48.2308°N, 120.8549°W)
Time: 20:33:53
(UTC+00:00)
Language:

FENGYUN 1C DEB - Orbit

View from above orbital plane
View from above orbital plane
View from above satellite
View from above satellite

Ground track
Ground track

The orbit data is extracted from the following two-line orbital elements,

1 30668U 99025AQA 22022.08213726  .00000680  00000-0  45893-3 0  9991
2 30668  99.2134  60.8753 0090209 231.4829 183.2056 14.02119776760872
Epoch (UTC): 22 January 2022 01:58:16
Eccentricity: 0.0090209
inclination: 99.2134°
perigee height: 821 km
apogee height: 952 km
right ascension of ascending node: 60.8753°
argument of perigee: 231.4829°
revolutions per day: 14.02119776
mean anomaly at epoch: 183.2056°
orbit number at epoch: 76087

The dashed part of the orbit path shows where the satellite is in the earth's shadow,  

DLR